When you browse on this site, cookies collect data to enhance your experience and personalize the content and advertising you see.
Visit our Privacy Policy to learn more. By continuing to use the site, you agree to this use of cookies and data.
  • In Sweden
  • List of Countries
  • For 7 days
  • Water Temperature
  • Weather Map
  • Weather Widgets
  • user-avatar
    Login

    Hourly Weather Oaxaca

    Today, 17 February, Monday

    Time Temperature Precipitation Wind Pressure Humidity
    00:00 +15°C° 0 mm 1 mps 632 mmHg 88%
    01:00 +15°C° 0 mm 1 mps 631 mmHg 88%
    02:00 +14°C° 0 mm 1 mps 631 mmHg 88%
    03:00 +14°C° 0 mm 1 mps 631 mmHg 88%
    04:00 +13°C° 0 mm 1 mps 630 mmHg 87%
    05:00 +13°C° 0 mm 1 mps 630 mmHg 87%
    06:00 +12°C° 0 mm 1 mps 630 mmHg 90%
    07:00 +15°C° 0 mm 1 mps 631 mmHg 78%
    08:00 +18°C° 0 mm 1 mps 632 mmHg 66%
    09:00 +20°C° 0 mm 1 mps 633 mmHg 54%
    10:00 +23°C° 0 mm 1 mps 634 mmHg 44%
    11:00 +26°C° 0 mm 1 mps 634 mmHg 34%
    12:00 +28°C° 0 mm 1 mps 635 mmHg 24%
    13:00 +29°C° 0 mm 1 mps 634 mmHg 22%
    14:00 +30°C° 0 mm 2 mps 634 mmHg 21%
    15:00 +30°C° 0 mm 2 mps 634 mmHg 19%
    16:00 +29°C° 0 mm 2 mps 633 mmHg 24%
    17:00 +27°C° 0 mm 2 mps 633 mmHg 29%
    18:00 +26°C° 0 mm 2 mps 633 mmHg 33%
    19:00 +23°C° 0 mm 1 mps 632 mmHg 44%
    20:00 +21°C° 0 mm 1 mps 632 mmHg 55%
    21:00 +18°C° 0 mm 1 mps 632 mmHg 66%
    22:00 +16°C° 0 mm 0 mps 631 mmHg 69%
    23:00 +15°C° 0 mm 0 mps 631 mmHg 72%

    Tomorrow, 18 February, Tuesday

    Time Temperature Precipitation Wind Pressure Humidity
    00:00 +14°C° 0 mm 0 mps 631 mmHg 75%
    01:00 +14°C° 0 mm 0 mps 631 mmHg 76%
    02:00 +14°C° 0 mm 0 mps 630 mmHg 77%
    03:00 +13°C° 0 mm 0 mps 630 mmHg 79%
    04:00 +13°C° 0 mm 0 mps 630 mmHg 78%
    05:00 +13°C° 0 mm 0 mps 630 mmHg 78%
    06:00 +12°C° 0 mm 0 mps 630 mmHg 78%
    07:00 +15°C° 0 mm 0 mps 631 mmHg 68%
    08:00 +18°C° 0 mm 0 mps 632 mmHg 57%
    09:00 +21°C° 0 mm 0 mps 634 mmHg 47%
    10:00 +25°C° 0 mm 1 mps 634 mmHg 39%
    11:00 +28°C° 0 mm 1 mps 635 mmHg 31%
    12:00 +30°C° 0 mm 1 mps 635 mmHg 24%
    13:00 +31°C° 0 mm 2 mps 635 mmHg 22%
    14:00 +31°C° 0 mm 2 mps 634 mmHg 21%
    15:00 +32°C° 0 mm 2 mps 634 mmHg 20%
    16:00 +30°C° 0 mm 2 mps 633 mmHg 26%
    17:00 +29°C° 0 mm 2 mps 633 mmHg 31%
    18:00 +27°C° 0 mm 2 mps 633 mmHg 37%
    19:00 +25°C° 0 mm 2 mps 633 mmHg 46%
    20:00 +22°C° 0 mm 1 mps 633 mmHg 55%
    21:00 +20°C° 0 mm 1 mps 633 mmHg 65%
    22:00 +17°C° 0 mm 0 mps 633 mmHg 67%
    23:00 +16°C° 0 mm 0 mps 633 mmHg 69%

    Day after tomorrow, 19 February, Wednesday

    Time Temperature Precipitation Wind Pressure Humidity
    00:00 +15°C° 0 mm 0 mps 633 mmHg 72%
    01:00 +15°C° 0 mm 0 mps 632 mmHg 73%
    02:00 +14°C° 0 mm 0 mps 632 mmHg 74%
    03:00 +14°C° 0 mm 0 mps 632 mmHg 76%
    04:00 +15°C° 0 mm 1 mps 632 mmHg 73%
    05:00 +14°C° 0 mm 1 mps 632 mmHg 70%
    06:00 +14°C° 0 mm 1 mps 632 mmHg 67%
    07:00 +16°C° 0 mm 1 mps 633 mmHg 58%
    08:00 +19°C° 0 mm 1 mps 634 mmHg 49%
    09:00 +22°C° 0 mm 1 mps 636 mmHg 40%
    10:00 +24°C° 0 mm 1 mps 636 mmHg 33%
    11:00 +26°C° 0 mm 1 mps 637 mmHg 27%
    12:00 +28°C° 0 mm 1 mps 637 mmHg 21%
    13:00 +29°C° 0 mm 2 mps 637 mmHg 21%
    14:00 +29°C° 0 mm 2 mps 636 mmHg 22%
    15:00 +30°C° 0 mm 2 mps 635 mmHg 22%
    16:00 +28°C° 0 mm 2 mps 635 mmHg 30%
    17:00 +26°C° 0 mm 2 mps 635 mmHg 38%
    18:00 +25°C° 0 mm 3 mps 634 mmHg 47%
    19:00 +21°C° 0 mm 2 mps 634 mmHg 59%
    20:00 +19°C° 0 mm 2 mps 634 mmHg 70%
    21:00 +17°C° 0 mm 2 mps 634 mmHg 82%
    22:00 +17°C° 0 mm 2 mps 634 mmHg 85%
    23:00 +16°C° 0 mm 2 mps 634 mmHg 88%

    20 February, Thursday

    Time Temperature Precipitation Wind Pressure Humidity
    00:00 +16°C° 0 mm 2 mps 634 mmHg 91%
    01:00 +15°C° 0 mm 1 mps 634 mmHg 92%
    02:00 +15°C° 0 mm 1 mps 633 mmHg 93%
    03:00 +15°C° 0 mm 1 mps 633 mmHg 94%
    04:00 +15°C° 0 mm 1 mps 633 mmHg 93%
    05:00 +14°C° 0 mm 1 mps 633 mmHg 93%
    06:00 +14°C° 0 mm 1 mps 633 mmHg 93%
    07:00 +16°C° 0 mm 1 mps 634 mmHg 82%
    08:00 +19°C° 0 mm 1 mps 635 mmHg 71%
    09:00 +21°C° 0 mm 1 mps 636 mmHg 60%
    10:00 +23°C° 0 mm 1 mps 636 mmHg 52%
    11:00 +26°C° 0 mm 1 mps 637 mmHg 43%
    12:00 +28°C° 0 mm 1 mps 637 mmHg 34%
    13:00 +29°C° 0 mm 2 mps 637 mmHg 34%
    14:00 +29°C° 0 mm 2 mps 636 mmHg 34%
    15:00 +30°C° 0 mm 2 mps 635 mmHg 34%
    16:00 +28°C° 0 mm 2 mps 635 mmHg 41%
    17:00 +27°C° 0 mm 3 mps 635 mmHg 48%
    18:00 +25°C° 0 mm 3 mps 635 mmHg 56%
    19:00 +22°C° 0 mm 3 mps 635 mmHg 65%
    20:00 +20°C° 0 mm 3 mps 635 mmHg 74%
    21:00 +18°C° 0 mm 2 mps 635 mmHg 83%
    22:00 +17°C° 0 mm 2 mps 635 mmHg 85%
    23:00 +16°C° 0 mm 2 mps 635 mmHg 87%

    21 February, Friday

    Time Temperature Precipitation Wind Pressure Humidity
    00:00 +16°C° 0 mm 2 mps 635 mmHg 90%
    07:00 +15°C° 0 mm 2 mps 635 mmHg 84%
    08:00 +17°C° 0 mm 2 mps 636 mmHg 77%
    09:00 +19°C° 0 mm 2 mps 637 mmHg 70%
    10:00 +20°C° 0 mm 3 mps 638 mmHg 63%
    11:00 +22°C° 0 mm 3 mps 638 mmHg 56%
    12:00 +25°C° 0 mm 4 mps 639 mmHg 49%
    13:00 +26°C° 0 mm 4 mps 638 mmHg 48%
    14:00 +26°C° 0 mm 4 mps 637 mmHg 46%
    15:00 +26°C° 0 mm 4 mps 637 mmHg 45%
    16:00 +25°C° 0 mm 4 mps 637 mmHg 52%
    17:00 +22°C° 0 mm 4 mps 636 mmHg 58%
    18:00 +21°C° 0 mm 3 mps 636 mmHg 64%
    19:00 +19°C° 0 mm 3 mps 636 mmHg 72%
    20:00 +18°C° 0 mm 2 mps 636 mmHg 80%
    21:00 +16°C° 0 mm 2 mps 636 mmHg 88%
    22:00 +16°C° 0 mm 2 mps 637 mmHg 88%
    23:00 +16°C° 0 mm 2 mps 637 mmHg 89%

    22 February, Saturday

    Time Temperature Precipitation Wind Pressure Humidity
    00:00 +16°C° 0 mm 2 mps 637 mmHg 89%
    01:00 +16°C° 0 mm 2 mps 636 mmHg 90%
    02:00 +15°C° 0 mm 2 mps 636 mmHg 91%
    03:00 +15°C° 0 mm 1 mps 635 mmHg 92%
    04:00 +15°C° 0 mm 1 mps 635 mmHg 92%
    05:00 +15°C° 0 mm 1 mps 635 mmHg 92%
    06:00 +14°C° 0 mm 1 mps 635 mmHg 93%
    07:00 +16°C° 0 mm 1 mps 636 mmHg 87%
    08:00 +17°C° 0 mm 2 mps 637 mmHg 81%
    09:00 +18°C° 0 mm 2 mps 638 mmHg 75%
    10:00 +20°C° 0 mm 2 mps 638 mmHg 65%
    11:00 +23°C° 0 mm 2 mps 638 mmHg 56%
    12:00 +25°C° 0 mm 2 mps 639 mmHg 46%
    13:00 +26°C° 0 mm 2 mps 638 mmHg 42%
    14:00 +27°C° 0 mm 2 mps 638 mmHg 38%
    15:00 +28°C° 0 mm 2 mps 637 mmHg 35%
    16:00 +27°C° 0 mm 2 mps 637 mmHg 41%
    17:00 +26°C° 0 mm 2 mps 637 mmHg 48%
    18:00 +24°C° 0 mm 2 mps 636 mmHg 54%
    19:00 +21°C° 0 mm 2 mps 636 mmHg 65%
    20:00 +19°C° 0 mm 2 mps 636 mmHg 75%
    21:00 +17°C° 0 mm 2 mps 636 mmHg 86%
    22:00 +16°C° 0 mm 2 mps 635 mmHg 87%
    23:00 +16°C° 0 mm 2 mps 635 mmHg 89%
    Show more